Location: Hylvaty SDH
(49.9612°N, 16.4057°E)
Time: 12:24:31
(UTC+01:00)

A-11 Canister half - Pass Details

Date: 05 October 2020
Orbit: 1526 x 1683 km, 47.3° (Epoch: 28 October)

Event Time Altitude Azimuth Distance (km) Brightness Sun altitude
Rises 03:00:20 0° 285° (WNW) 4,699 - -36.4°
Reaches altitude 10° 03:03:26 10° 281° (W) 3,728 - -36.1°
Maximum altitude 03:12:27 53° 208° (SSW) 1,881 - -35.0°
Exits shadow 03:16:38 33° 153° (SSE) 2,424 9.8 -34.5°
Drops below altitude 10° 03:21:44 10° 136° (SE) 3,830 11.1 -33.9°
Sets 03:24:59 0° 131° (SE) 4,835 11.7 -33.5°
